This is the latest recevied weather packets stored in our database for station/object JI6FPP-13. If no packets are shown the sender has not sent any weather packets the latest 10 day(s).
| Time | Temp. | Humidity | Pressure | Rain* | Wind** | Luminosity | Snow |
|---|---|---|---|---|---|---|---|
| 1777700779 | 24.44° C | 21% | 1008 hPa | 0 mm | - | - | - |
| 1777700180 | 24.44° C | 22% | 1009 hPa | 0 mm | - | - | - |
| 1777699580 | 23.89° C | 22% | 1009 hPa | 0 mm | - | - | - |
| 1777698980 | 23.33° C | 21% | 1009 hPa | 0 mm | - | - | - |
| 1777698380 | 23.89° C | 20% | 1009 hPa | 0 mm | - | - | - |
| 1777697780 | 23.89° C | 16% | 1009 hPa | 0 mm | - | - | - |
| 1777697180 | 23.89° C | 12% | 1009 hPa | 0 mm | - | - | - |
| 1777696580 | 24.44° C | 13% | 1009 hPa | 0 mm | - | - | - |
| 1777695980 | 24.44° C | 8% | 1009 hPa | 0 mm | - | - | - |
| 1777695380 | 23.89° C | 10% | 1010 hPa | 0 mm | - | - | - |
| 1777694780 | 23.89° C | 11% | 1008 hPa | 0 mm | - | - | - |
| 1777694180 | 23.89° C | 21% | 1008 hPa | 0 mm | - | - | - |
| 1777693581 | 23.89° C | 22% | 1009 hPa | 0 mm | - | - | - |
| 1777692981 | 23.89° C | 23% | 1008 hPa | 0 mm | - | - | - |
| 1777692379 | 23.89° C | 24% | 1008 hPa | 0 mm | - | - | - |
| 1777691779 | 23.33° C | 25% | 1008 hPa | 0 mm | - | - | - |
| 1777691180 | 23.33° C | 25% | 1009 hPa | 0 mm | - | - | - |
| 1777690579 | 22.78° C | 26% | 1009 hPa | 0 mm | - | - | - |
| 1777689979 | 22.78° C | 24% | 1009 hPa | 0 mm | - | - | - |
| 1777689379 | 22.22° C | 29% | 1009 hPa | 0 mm | - | - | - |
| 1777688780 | 22.22° C | 31% | 1009 hPa | 0 mm | - | - | - |
| 1777688180 | 22.22° C | 32% | 1009 hPa | 0 mm | - | - | - |
| 1777687580 | 21.67° C | 33% | 1010 hPa | 0 mm | - | - | - |
| 1777686980 | 21.11° C | 33% | 1010 hPa | 0 mm | - | - | - |
| 1777686381 | 20.56° C | 34% | 1010 hPa | 0 mm | - | - | - |
* Rain latest hour (hover to see other rain measurements)
** Current wind speed in m/s (hover to see current wind gust speed)